Weather History for Clinton, OK

Change the Weather History Date:

Thursday, October 24, 2013

  Actual Average (KCSM) Record (KCSM)
Temperature  
Mean Temperature 50 °F -  
Max Temperature 59 °F 67 °F 86 °F (2014)
Min Temperature 41 °F 46 °F 28 °F (2005)
Degree Days  
Heating Degree Days 15    
Moisture  
Dew Point 35 °F    
Average Humidity 60    
Maximum Humidity 87    
Minimum Humidity 36    
Precipitation  
Precipitation 0.00 in - - ()
Sea Level Pressure  
Sea Level Pressure 30.28 in    
Wind  
Wind Speed 10 mph (NE)    
Max Wind Speed 28 mph    
Max Gust Speed 33 mph    
Visibility 10 miles    
Events      
Averages and records for this station are not official NWS values.
T = Trace of Precipitation, MM = Missing Value Source: NWS Daily Summary

Daily Weather History Graph

Daily Weather History Graph

Search for Another Location

Airport:

Trip Planner

Search our weather history database for the weather conditions in past years. The results will help you decide how hot, cold, wet, or windy it might be!

Date:

Astronomy

Oct. 24, 2013 Rise Set
Actual Time 7:50 AM CDT 6:48 PM CDT
Civil Twilight 7:24 AM CDT 7:14 PM CDT
Nautical Twilight 6:54 AM CDT 7:44 PM CDT
Astronomical Twilight 6:24 AM CDT 8:14 PM CDT
Moon 11:18 PM CDT (10/24) 12:47 PM CDT (10/24)
Length of Visible Light 11h 50m
Length of Day
10h 58m
Waning Gibbous, 71% of the Moon is Illuminated
Oct 24
Waning Gibbous
Oct 26
Last Quarter
Nov 3
New
Nov 9
First Quarter
Nov 17
Full

Hourly Weather History & Observations

Time (CDT) Temp. Windchill Dew Point Humidity Pressure Visibility Wind Dir Wind Speed Gust Speed Precip Events Conditions
12:15 AM 53.6 °F - 42.8 °F 67% 30.12 in 10.0 mi NNE 6.9 mph - N/A   Mostly Cloudy
12:35 AM 53.6 °F - 42.8 °F 67% 30.12 in 10.0 mi NE 6.9 mph - N/A   Mostly Cloudy
12:55 AM 53.6 °F - 42.8 °F 67% 30.12 in 10.0 mi NNE 5.8 mph - N/A   Mostly Cloudy
1:15 AM 51.8 °F - 42.8 °F 71% 30.13 in 10.0 mi North 3.5 mph - N/A   Scattered Clouds
1:35 AM 51.8 °F - 42.8 °F 71% 30.13 in 10.0 mi Calm Calm - N/A   Mostly Cloudy
1:55 AM 50.0 °F - 42.8 °F 76% 30.13 in 10.0 mi North 4.6 mph - N/A   Mostly Cloudy
2:15 AM 50.0 °F - 42.8 °F 76% 30.13 in 10.0 mi North 4.6 mph - N/A   Scattered Clouds
2:35 AM 46.4 °F 44.3 °F 41.0 °F 81% 30.14 in 10.0 mi North 4.6 mph - N/A   Mostly Cloudy
2:55 AM 46.4 °F 45.2 °F 41.0 °F 81% 30.15 in 10.0 mi NNW 3.5 mph - N/A   Mostly Cloudy
3:15 AM 48.2 °F - 41.0 °F 76% 30.15 in 10.0 mi WNW 4.6 mph - N/A   Scattered Clouds
3:35 AM 48.2 °F - 41.0 °F 76% 30.15 in 10.0 mi WNW 4.6 mph - N/A   Scattered Clouds
3:55 AM 46.4 °F 43.5 °F 41.0 °F 81% 30.15 in 10.0 mi NW 5.8 mph - N/A   Scattered Clouds
4:15 AM 44.6 °F 41.4 °F 39.2 °F 81% 30.16 in 10.0 mi NNW 5.8 mph - N/A   Clear
4:35 AM 44.6 °F 42.2 °F 41.0 °F 87% 30.16 in 10.0 mi NW 4.6 mph - N/A   Scattered Clouds
4:55 AM 44.6 °F - 41.0 °F 87% 30.18 in 10.0 mi Calm Calm - N/A   Clear
5:15 AM 44.6 °F 42.2 °F 39.2 °F 81% 30.18 in 10.0 mi North 4.6 mph - N/A   Clear
5:35 AM 42.8 °F 38.6 °F 39.2 °F 87% 30.19 in 10.0 mi North 6.9 mph - N/A   Clear
5:55 AM 46.4 °F 40.7 °F 41.0 °F 81% 30.20 in 10.0 mi NNE 12.7 mph - N/A   Clear
6:15 AM 46.4 °F 39.8 °F 39.2 °F 76% 30.20 in 10.0 mi NNE 16.1 mph - N/A   Clear
6:35 AM 46.4 °F 39.8 °F 39.2 °F 76% 30.21 in 10.0 mi NNE 16.1 mph 20.7 mph N/A   Clear
6:55 AM 46.4 °F 40.4 °F 37.4 °F 71% 30.22 in 10.0 mi NNE 13.8 mph - N/A   Clear
7:15 AM 44.6 °F 39.7 °F 37.4 °F 76% 30.24 in 10.0 mi NE 9.2 mph - N/A   Clear
7:35 AM 44.6 °F 39.2 °F 37.4 °F 76% 30.25 in 10.0 mi NE 10.4 mph - N/A   Clear
7:55 AM 44.6 °F 40.2 °F 35.6 °F 71% 30.28 in 10.0 mi NNE 8.1 mph - N/A   Clear
8:15 AM 44.6 °F 39.7 °F 35.6 °F 71% 30.29 in 10.0 mi NE 9.2 mph - N/A   Clear
8:35 AM 44.6 °F 39.2 °F 35.6 °F 71% 30.29 in 10.0 mi NE 10.4 mph - N/A   Clear
8:55 AM 44.6 °F 38.4 °F 35.6 °F 71% 30.31 in 10.0 mi NE 12.7 mph - N/A   Clear
9:15 AM 44.6 °F 36.9 °F 35.6 °F 71% 30.31 in 10.0 mi NE 18.4 mph - N/A   Clear
9:35 AM 46.4 °F 39.0 °F 35.6 °F 66% 30.32 in 10.0 mi NE 19.6 mph 26.5 mph N/A   Clear
9:55 AM 48.2 °F - 33.8 °F 58% 30.32 in 10.0 mi NE 23.0 mph 28.8 mph N/A   Clear
10:15 AM 50.0 °F - 33.8 °F 54% 30.33 in 10.0 mi NE 21.9 mph 31.1 mph N/A   Clear
10:35 AM 50.0 °F - 32.0 °F 50% 30.33 in 10.0 mi NE 26.5 mph 32.2 mph N/A   Clear
10:55 AM 50.0 °F - 32.0 °F 50% 30.34 in 10.0 mi NE 25.3 mph 32.2 mph N/A   Clear
11:15 AM 51.8 °F - 32.0 °F 47% 30.34 in 10.0 mi NE 27.6 mph 33.4 mph N/A   Clear
11:35 AM 51.8 °F - 32.0 °F 47% 30.35 in 10.0 mi NE 24.2 mph 31.1 mph N/A   Clear
11:55 AM 53.6 °F - 33.8 °F 47% 30.36 in 10.0 mi NE 19.6 mph 24.2 mph N/A   Clear
12:15 PM 53.6 °F - 32.0 °F 44% 30.36 in 10.0 mi NE 20.7 mph 25.3 mph N/A   Clear
12:35 PM 53.6 °F - 32.0 °F 44% 30.36 in 10.0 mi ENE 20.7 mph - N/A   Clear
12:55 PM 53.6 °F - 32.0 °F 44% 30.36 in 10.0 mi ENE 18.4 mph 21.9 mph N/A   Clear
1:15 PM 53.6 °F - 32.0 °F 44% 30.36 in 10.0 mi ENE 17.3 mph 23.0 mph N/A   Clear
1:35 PM 55.4 °F - 32.0 °F 41% 30.35 in 10.0 mi NE 18.4 mph 25.3 mph N/A   Clear
1:55 PM 55.4 °F - 32.0 °F 41% 30.34 in 10.0 mi NE 17.3 mph 21.9 mph N/A   Clear
2:15 PM 55.4 °F - 32.0 °F 41% 30.34 in 10.0 mi NE 15.0 mph - N/A   Clear
2:35 PM 57.2 °F - 32.0 °F 38% 30.33 in 10.0 mi NE 18.4 mph - N/A   Clear
2:55 PM 55.4 °F - 32.0 °F 41% 30.33 in 10.0 mi ENE 13.8 mph 20.7 mph N/A   Clear
3:15 PM 57.2 °F - 32.0 °F 38% 30.32 in 10.0 mi ENE 11.5 mph 19.6 mph N/A   Clear
3:35 PM 57.2 °F - 32.0 °F 38% 30.32 in 10.0 mi ENE 13.8 mph 18.4 mph N/A   Clear
3:55 PM 57.2 °F - 32.0 °F 38% 30.31 in 10.0 mi ENE 12.7 mph 19.6 mph N/A   Clear
4:15 PM 57.2 °F - 32.0 °F 38% 30.31 in 10.0 mi ENE 13.8 mph 19.6 mph N/A   Clear
4:35 PM 59.0 °F - 32.0 °F 36% 30.31 in 10.0 mi ENE 12.7 mph - N/A   Clear
4:55 PM 59.0 °F - 32.0 °F 36% 30.31 in 10.0 mi NE 13.8 mph - N/A   Clear
5:15 PM 57.2 °F - 32.0 °F 38% 30.31 in 10.0 mi ENE 11.5 mph 19.6 mph N/A   Clear
5:35 PM 57.2 °F - 32.0 °F 38% 30.30 in 10.0 mi ENE 12.7 mph 17.3 mph N/A   Clear
5:55 PM 55.4 °F - 32.0 °F 41% 30.30 in 10.0 mi ENE 11.5 mph - N/A   Clear
6:15 PM 55.4 °F - 32.0 °F 41% 30.30 in 10.0 mi ENE 13.8 mph - N/A   Clear
6:35 PM 53.6 °F - 32.0 °F 44% 30.30 in 10.0 mi East 11.5 mph 17.3 mph N/A   Clear
6:55 PM 53.6 °F - 32.0 °F 44% 30.31 in 10.0 mi ENE 8.1 mph - N/A   Clear
7:15 PM 51.8 °F - 32.0 °F 47% 30.31 in 10.0 mi East 6.9 mph - N/A   Clear
7:35 PM 50.0 °F - 32.0 °F 50% 30.32 in 10.0 mi ENE 5.8 mph - N/A   Clear
7:55 PM 46.4 °F 43.5 °F 32.0 °F 57% 30.32 in 10.0 mi ENE 5.8 mph - N/A   Scattered Clouds
8:15 PM 46.4 °F 44.3 °F 32.0 °F 57% 30.33 in 10.0 mi ENE 4.6 mph - N/A   Scattered Clouds
8:35 PM 46.4 °F 43.5 °F 32.0 °F 57% 30.33 in 10.0 mi ENE 5.8 mph - N/A   Scattered Clouds
8:55 PM 46.4 °F 44.3 °F 32.0 °F 57% 30.34 in 10.0 mi ENE 4.6 mph - N/A   Scattered Clouds
9:15 PM 46.4 °F 45.2 °F 32.0 °F 57% 30.35 in 10.0 mi ENE 3.5 mph - N/A   Clear
9:35 PM 44.6 °F 41.4 °F 32.0 °F 61% 30.35 in 3.0 mi NE 5.8 mph - N/A   Haze
9:55 PM 42.8 °F 39.3 °F 32.0 °F 66% 30.37 in 7.0 mi NE 5.8 mph - N/A   Clear
10:15 PM 42.8 °F 38.0 °F 32.0 °F 66% 30.37 in 10.0 mi NE 8.1 mph - N/A   Clear
10:35 PM 42.8 °F 37.5 °F 33.8 °F 70% 30.38 in 10.0 mi NE 9.2 mph - N/A   Clear
10:55 PM 42.8 °F 37.5 °F 32.0 °F 66% 30.38 in 10.0 mi NE 9.2 mph - N/A   Clear
11:15 PM 41.0 °F 35.2 °F 32.0 °F 70% 30.39 in 10.0 mi NE 9.2 mph - N/A   Clear
11:35 PM 41.0 °F 35.2 °F 32.0 °F 70% 30.39 in 3.0 mi NE 9.2 mph - N/A   Clear
11:55 PM 41.0 °F 34.7 °F 32.0 °F 70% 30.39 in 10.0 mi NE 10.4 mph - N/A   Clear